Location: Olsztyn
(53.7767°N, 20.4765°E)
Time: 08:33:40
(UTC+01:00)

Transit 4A - Pass Details

Date: 03 October 2022
Orbit: 871 x 972 km, 66.8° (Epoch: 06 December)

Event Time Altitude Azimuth Distance (km) Brightness Sun altitude
Exits shadow 02:15:50 25° 334° (NNW) 1,734 9.5 -35.4°
Maximum altitude 02:16:34 26° 346° (NNW) 1,707 9.5 -35.3°
Drops below altitude 10° 02:21:28 10° 41° (NE) 2,559 11.0 -34.9°
Sets 02:24:24 0° 55° (NE) 3,488 11.8 -34.7°
